Regional Weather Roundup
Issued by NWS

Home | Current Version | Previous Version | Graphics & Text | Print | Product List | Glossary On
Versions: 1 2 3 4 5 6 7 8 9 10 11 12 13 14 15 16 17 18 19 20 21 22 23 24 25 26 27 28 29 30 31 32 33 34 35 36 37 38 39 40 41 42 43 44 45 46 47 48 49 50
000
ASUS43 KBIS 202210
RWRND

NORTH DAKOTA REGIONAL WEATHER ROUNDUP
NATIONAL WEATHER SERVICE BISMARCK ND
400 PM CST SAT DEC 20 2014

NOTE: "FAIR" INDICATES FEW OR NO CLOUDS BELOW 12,000 FEET WITH NO
SIGNIFICANT WEATHER AND/OR OBSTRUCTIONS TO VISIBILITY.


NDZ001>003-009>011-017-202300-
NORTHWEST NORTH DAKOTA

CITY           SKY/WX    TMP DP  RH WIND       PRES   REMARKS
WILLISTON      MOCLDY    40  29  64 SW8       29.77S
MINOT          CLEAR     29  26  89 SE5       29.78S
MINOT AFB      CLEAR     26  26 100 SE5       29.78S
$$

NDZ018>021-031>035-040>046-202300-
SOUTHWEST NORTH DAKOTA

CITY           SKY/WX    TMP DP  RH WIND       PRES   REMARKS
BISMARCK       CLEAR     34  28  79 SE5       29.84S
DICKINSON      CLEAR     44  26  49 W9        29.79R
GARRISON         N/A     32  29  88 S3        29.79S
HETTINGER ARPT PTCLDY    42  27  55 W9        29.84R
$$

NDZ004>008-012>016-024-026-027-054-202300-
NORTHEAST NORTH DAKOTA

CITY           SKY/WX    TMP DP  RH WIND       PRES   REMARKS
GRAND FORKS    CLOUDY    28  27  96 S10       29.94S FOG     WCI  19
GRND FRKS AFB  CLOUDY    28  28 100 S10       29.93F FOG     WCI  19
DEVILS LAKE    CLOUDY    27  19  74 SE12      29.84S WCI  16
$$

NDZ022-023-025-028>030-036>039-047>053-202300-
SOUTHEAST NORTH DAKOTA

CITY           SKY/WX    TMP DP  RH WIND       PRES   REMARKS
FARGO          CLOUDY    31  27  85 S14       29.96F FOG
JAMESTOWN      CLOUDY    30  26  85 S12       29.86F FOG
$$



USA.gov is the U.S. government's official web portal to all federal, state and local government web resources and services.